User: anonymous   Login
Location: Unspecified
(0.0000°N, 0.0000°E)
Time: 04:53:52
(UTC+00:00)
Language:

A-11 Canister half - Orbit

View from above orbital plane
View from above orbital plane
View from above satellite
View from above satellite

Ground track
Ground track

The orbit data is extracted from the following two-line orbital elements,

1 00051U 60009C   15208.81818146 -.00000133  00000-0 -47976-3 0  9999
2 00051 047.2128 114.7639 0104627 252.1981 106.7369 12.18257756446270
Epoch (UTC): 27 July 2015 19:38:10
Eccentricity: 0.0104627
inclination: 47.2128°
perigee height: 1516 km
apogee height: 1683 km
right ascension of ascending node: 114.7639°
argument of perigee: 252.1981°
revolutions per day: 12.18257756
mean anomaly at epoch: 106.7369°
orbit number at epoch: 44627

The dashed part of the orbit path shows where the satellite is in the earth's shadow,  

DLR